Content
SEND FEEDBACK

Daily
Averages
Monthly
Summary
Canada

QUEBEC CITY, QUEBEC


Home > North America > Canada > Quebec
Elevation: 239 feet     Latitude: 46 48N     Longitude: 071 23W

WEATHER
 
SELECT A DAY
Number of Records: 191,965;   Date Range: 6/30/96 - 7/20/14
 
SHARE

PRINT THIS DATA

[ ← Previous Day ]
WEATHER ALMANAC - FEBRUARY 5, 2013
[ Next Day → ]
[ °C ]   °F
Weather ElementAverageHighLow
Temperature-1 °F6.8 °F (4:00 pm)-10 °F (7:00 am)
Dewpoint-14.5 °F-5 °F (10:00 pm)-22 °F (3:00 am)
Humidity49.2 %56 % (11:00 pm)39 % (1:00 am)
Barometer29.99 in30.05 in (10:00 am)29.88 in (1:00 am)
Wind Speed10.5 mph20.7 mph (1:00 am)
Wind Gust17.3 mph (12:00 pm)
Weather ElementAverage
Visibility22.2 mi
Wind DirectionSSW (212.6 °)

Weather ElementTotal
Precipitation---
Heating Degree Days66.6 (Base 65)
Averaged from 31 records on February 5, 2013
WEATHER CONDITIONS BREAKOUT
WIND DIRECTION BREAKOUT
WEATHER BY HOUR - FEBRUARY 5, 2013
[ °C ]   °F
Local TimeTemperatureDewpointHumidityBarometerVisibilityWind DirectionWind SpeedGust SpeedPrecipitationEventsConditions
1:00 AM-4.0 °F-16.0 °F39 %29.88 inWest (270°)13.8 mph
1:00 AM-4.0 °F-20.2 °F46 %29.88 in15.0 miWest (270°)20.7 mphClear
2:00 AM-5.8 °F-20.2 °F50 %29.91 in15.0 miWest (270°)15.0 mphClear
3:00 AM-5.8 °F-22.0 °F46 %29.93 in15.0 miWest (270°)17.3 mphClear
4:00 AM-7.0 °F-18.0 °F43 %29.94 inWSW (250°)11.5 mph
4:00 AM-7.6 °F-22.0 °F50 %29.94 in15.0 miWest (260°)17.3 mphClear
5:00 AM-9.4 °F-22.0 °F54 %29.96 in15.0 miWSW (250°)15.0 mphClear
6:00 AM-9.4 °F-22.0 °F54 %29.97 in15.0 miWest (260°)16.1 mphClear
7:00 AM-10.0 °F-18.0 °F53 %29.99 inWest (260°)11.5 mph
7:00 AM-9.4 °F-22.0 °F54 %30.00 in30.0 miWest (260°)15.0 mphPartly Cloudy
8:00 AM-9.4 °F-22.0 °F54 %30.02 in30.0 miWest (260°)15.0 mphPartly Cloudy
9:00 AM-7.6 °F-20.2 °F54 %30.04 in30.0 miWest (260°)17.3 mphPartly Cloudy
10:00 AM-5.0 °F-16.0 °F44 %30.05 inWSW (250°)9.2 mph
10:00 AM-4.0 °F-18.4 °F50 %30.05 in30.0 miWSW (240°)12.7 mphPartly Cloudy
11:00 AM-2.2 °F-14.8 °F55 %30.05 in30.0 miWSW (240°)12.7 mphPartly Cloudy
12:00 PM1.4 °F-14.8 °F47 %30.04 in30.0 miWSW (240°)11.5 mph17.3 mphPartly Cloudy
1:00 PM2.0 °F-10.0 °F42 %30.01 inWSW (240°)6.9 mph
1:00 PM1.4 °F-13.0 °F51 %30.02 in30.0 miSW (230°)12.7 mphPartly Cloudy
2:00 PM5.0 °F-9.4 °F52 %30.01 in30.0 miWSW (250°)17.3 mphPartly Cloudy
3:00 PM5.0 °F-11.2 °F47 %30.01 in30.0 miWSW (240°)13.8 mphScattered Clouds
4:00 PM6.0 °F-7.0 °F40 %30.00 inWest (260°)6.9 mph
4:00 PM6.8 °F-9.4 °F48 %30.01 in30.0 miWSW (240°)10.4 mphMostly Cloudy
5:00 PM5.0 °F-11.2 °F47 %30.01 in30.0 miWest (270°)3.5 mphMostly Cloudy
6:00 PM5.0 °F-11.2 °F47 %30.01 in15.0 miCalmMostly Cloudy
7:00 PM4.0 °F-6.0 °F47 %30.01 inNorth (10°)1.2 mph
7:00 PM5.0 °F-11.2 °F47 %30.01 in15.0 miNNE (20°)3.5 mphOvercast
8:00 PM5.0 °F-9.4 °F52 %30.00 in15.0 miNorth (360°)4.6 mphOvercast
9:00 PM5.0 °F-9.4 °F52 %30.00 in15.0 miNorth (10°)3.5 mphOvercast
10:00 PM4.0 °F-5.0 °F53 %29.98 inNorth1.2 mph
10:00 PM5.0 °F-9.4 °F52 %29.98 in15.0 miNorth (10°)3.5 mphOvercast
11:00 PM5.0 °F-7.6 °F56 %29.97 in15.0 miNNW (340°)3.5 mphSnowLight Snow
Hourly data recorded from CYQB, located miles away from Quebec City, Quebec







STORIES FROM OUR PARTNERS